Tioga Municipal Airport, ND

5:45 AM CST on December 11, 2017 (GMT -0600)
Tioga Municipal Airport

Weather History for KD60 - January, 2014

Change the Weather History Date:

Saturday, January 4, 2014

  Actual Average (KISN) Record (KISN)
Temperature  
Mean Temperature -4 °F -  
Max Temperature 3 °F 17 °F 50 °F (2012)
Min Temperature -11 °F -5 °F -34 °F (1950)
Degree Days  
Heating Degree Days 69    
Moisture  
Dew Point -12 °F    
Average Humidity 79    
Maximum Humidity 100    
Minimum Humidity 65    
Precipitation  
Precipitation 0.00 in - - ()
Sea Level Pressure  
Sea Level Pressure 30.14 in    
Wind  
Wind Speed 19 mph (NW)    
Max Wind Speed 25 mph    
Max Gust Speed 36 mph    
Visibility 10 miles    
Events Rain , Snow    
Averages and records for this station are not official NWS values.
T = Trace of Precipitation, MM = Missing Value Source: NWS Daily Summary

Daily Weather History Graph

Daily Weather History Graph

Search for Another Location

Airport or City:

Trip Planner

Search our weather history database for the weather conditions in past years. The results will help you decide how hot, cold, wet, or windy it might be!

Date:

Astronomy

Jan. 04, 2014 Rise Set
Actual Time 8:42 AM CST 5:10 PM CST
Civil Twilight 8:06 AM CST 5:47 PM CST
Nautical Twilight 7:26 AM CST 6:26 PM CST
Astronomical Twilight 6:48 AM CST 7:04 PM CST
Moon 10:29 AM CST (1/4) 9:55 PM CST (1/4)
Length of Visible Light 9h 40m
Length of Day
8h 28m
Waxing Crescent, 15% of the Moon is Illuminated
Jan 4
Waxing Crescent
Jan 7
First Quarter
Jan 15
Full
Jan 23
Last Quarter
Jan 30
New

Hourly Weather History & Observations

Time (CST) Temp. Windchill Dew Point Humidity Pressure Visibility Wind Dir Wind Speed Gust Speed Precip Events Conditions
12:15 AM 3.2 °F -19.0 °F 1.4 °F 92% 29.87 in 3.0 mi NNW 23.0 mph 33.4 mph N/A Rain Light Freezing Rain
12:35 AM 1.4 °F -22.3 °F 1.4 °F 100% 29.88 in 3.0 mi NW 25.3 mph 34.5 mph N/A Rain Light Freezing Rain
12:55 AM 1.4 °F -21.9 °F -0.4 °F 92% 29.88 in 4.0 mi NW 24.2 mph 35.7 mph N/A Rain Light Freezing Rain
1:15 AM -0.4 °F -22.3 °F -2.2 °F 92% 29.89 in 5.0 mi NW 19.6 mph 31.1 mph N/A Rain Light Freezing Rain
1:35 AM -0.4 °F -21.2 °F -2.2 °F 92% 29.92 in 8.0 mi WNW 17.3 mph 27.6 mph N/A   Mostly Cloudy
1:55 AM -0.4 °F -22.8 °F -4.0 °F 85% 29.93 in 8.0 mi NW 20.7 mph 28.8 mph N/A   Mostly Cloudy
2:15 AM -2.2 °F -22.9 °F -4.0 °F 92% 29.94 in 10.0 mi NW 16.1 mph 26.5 mph N/A   Mostly Cloudy
2:35 AM -2.2 °F -24.7 °F -5.8 °F 85% 29.96 in 10.0 mi NW 19.6 mph 24.2 mph N/A   Scattered Clouds
2:55 AM -4.0 °F -26.4 °F -7.6 °F 85% 29.97 in 10.0 mi NW 18.4 mph 25.3 mph N/A   Scattered Clouds
3:15 AM -4.0 °F -23.7 °F -7.6 °F 85% 30.00 in 10.0 mi NW 13.8 mph 24.2 mph N/A   Scattered Clouds
3:35 AM -4.0 °F -26.4 °F -7.6 °F 85% 30.01 in 10.0 mi NW 18.4 mph 26.5 mph N/A   Scattered Clouds
3:55 AM -5.8 °F -29.9 °F -9.4 °F 84% 30.02 in 10.0 mi NW 20.7 mph 25.3 mph N/A   Partly Cloudy
4:15 AM -5.8 °F -28.8 °F -9.4 °F 84% 30.01 in 10.0 mi NW 18.4 mph - N/A   Clear
4:35 AM -7.6 °F -29.8 °F -11.2 °F 84% 30.03 in 10.0 mi NNW 16.1 mph 24.2 mph N/A   Clear
4:55 AM -7.6 °F -29.8 °F -11.2 °F 84% 30.04 in 10.0 mi NW 16.1 mph 23.0 mph N/A   Clear
5:15 AM -7.6 °F -26.6 °F -11.2 °F 84% 30.04 in 10.0 mi NW 11.5 mph 20.7 mph N/A   Clear
5:35 AM -7.6 °F -29.8 °F - N/A% 30.04 in 10.0 mi NW 16.1 mph 20.7 mph N/A   Clear
5:55 AM -7.6 °F -31.1 °F -13.0 °F 77% 30.06 in 10.0 mi NW 18.4 mph 25.3 mph N/A   Clear
6:15 AM -7.6 °F -29.8 °F -13.0 °F 77% 30.07 in 10.0 mi NW 16.1 mph 21.9 mph N/A   Clear
6:35 AM -9.4 °F -31.4 °F -13.0 °F 84% 30.07 in 10.0 mi WNW 15.0 mph 23.0 mph N/A   Clear
6:55 AM -9.4 °F -29.8 °F -13.0 °F 84% 30.09 in 10.0 mi WNW 12.7 mph - N/A   Clear
7:15 AM -9.4 °F -32.8 °F -13.0 °F 84% 30.09 in 10.0 mi NW 17.3 mph 24.2 mph N/A   Clear
7:35 AM -7.6 °F -28.3 °F -13.0 °F 77% 30.10 in 10.0 mi NW 13.8 mph 24.2 mph N/A   Clear
7:55 AM -7.6 °F -29.8 °F -13.0 °F 77% 30.10 in 10.0 mi NW 16.1 mph - N/A   Mostly Cloudy
8:15 AM -7.6 °F -29.8 °F -13.0 °F 77% 30.11 in 10.0 mi NW 16.1 mph - N/A   Partly Cloudy
8:35 AM -7.6 °F -31.1 °F -11.2 °F 84% 30.11 in 10.0 mi NW 18.4 mph 25.3 mph N/A   Partly Cloudy
8:55 AM -7.6 °F -31.7 °F -11.2 °F 84% 30.12 in 10.0 mi NW 19.6 mph 25.3 mph N/A   Clear
9:15 AM -7.6 °F -29.8 °F -11.2 °F 84% 30.14 in 10.0 mi NW 16.1 mph - N/A   Clear
9:35 AM -7.6 °F -32.3 °F -11.2 °F 84% 30.15 in 10.0 mi NW 20.7 mph 26.5 mph N/A   Clear
9:55 AM -7.6 °F -30.5 °F -13.0 °F 77% 30.14 in 10.0 mi NW 17.3 mph 25.3 mph N/A   Clear
10:15 AM -7.6 °F -30.5 °F -13.0 °F 77% 30.16 in 10.0 mi WNW 17.3 mph - N/A   Clear
10:35 AM -7.6 °F -31.7 °F - N/A% 30.16 in 10.0 mi NW 19.6 mph 25.3 mph N/A   Clear
10:55 AM -7.6 °F -31.1 °F -13.0 °F 77% 30.17 in 10.0 mi NW 18.4 mph 24.2 mph N/A   Clear
11:15 AM -5.8 °F -30.5 °F - N/A% 30.18 in 10.0 mi NW 21.9 mph - N/A   Clear
11:35 AM -7.6 °F -31.7 °F -13.0 °F 77% 30.17 in 10.0 mi NW 19.6 mph - N/A Snow Light Snow
11:55 AM -5.8 °F -29.4 °F -13.0 °F 71% 30.18 in 10.0 mi NW 19.6 mph 24.2 mph N/A   Clear
12:15 PM -5.8 °F -28.2 °F -13.0 °F 71% 30.18 in 10.0 mi NW 17.3 mph 25.3 mph N/A   Clear
12:35 PM -7.6 °F -31.1 °F -13.0 °F 77% 30.19 in 10.0 mi NW 18.4 mph 25.3 mph N/A   Clear
12:55 PM -5.8 °F -30.5 °F -13.0 °F 71% 30.19 in 10.0 mi NW 21.9 mph 26.5 mph N/A Snow Light Snow
1:15 PM -5.8 °F -29.4 °F -13.0 °F 71% 30.18 in 10.0 mi NW 19.6 mph - N/A   Clear
1:35 PM -5.8 °F -29.9 °F -13.0 °F 71% 30.18 in 10.0 mi NW 20.7 mph 24.2 mph N/A   Clear
1:55 PM -5.8 °F -27.5 °F -11.2 °F 77% 30.19 in 10.0 mi WNW 16.1 mph 21.9 mph N/A   Clear
2:15 PM -4.0 °F -26.4 °F - N/A% 30.19 in 10.0 mi WNW 18.4 mph 23.0 mph N/A   Clear
2:35 PM -4.0 °F -26.4 °F -13.0 °F 65% 30.20 in 10.0 mi WNW 18.4 mph - N/A   Partly Cloudy
2:55 PM -4.0 °F -27.6 °F -13.0 °F 65% 30.20 in 10.0 mi WNW 20.7 mph 27.6 mph N/A Snow Light Snow
3:15 PM -4.0 °F -27.0 °F -13.0 °F 65% 30.20 in 10.0 mi WNW 19.6 mph 25.3 mph N/A   Clear
3:35 PM -4.0 °F -25.2 °F -11.2 °F 71% 30.21 in 10.0 mi WNW 16.1 mph 23.0 mph N/A   Clear
3:55 PM -4.0 °F -26.4 °F -11.2 °F 71% 30.21 in 10.0 mi WNW 18.4 mph - N/A   Clear
4:15 PM -4.0 °F -25.8 °F -11.2 °F 71% 30.21 in 10.0 mi WNW 17.3 mph - N/A   Clear
4:35 PM -4.0 °F -26.4 °F -11.2 °F 71% 30.22 in 10.0 mi NW 18.4 mph - N/A   Clear
4:55 PM -5.8 °F -29.4 °F -13.0 °F 71% 30.22 in 10.0 mi WNW 19.6 mph - N/A   Clear
5:15 PM -5.8 °F -28.2 °F -13.0 °F 71% 30.22 in 10.0 mi WNW 17.3 mph - N/A   Clear
5:35 PM -7.6 °F -32.3 °F -13.0 °F 77% 30.23 in 10.0 mi WNW 20.7 mph 25.3 mph N/A   Clear
5:55 PM -7.6 °F -29.8 °F -13.0 °F 77% 30.23 in 10.0 mi WNW 16.1 mph 23.0 mph N/A   Clear
6:15 PM -7.6 °F -31.7 °F -13.0 °F 77% 30.23 in 10.0 mi WNW 19.6 mph 25.3 mph N/A   Clear
6:35 PM -7.6 °F -32.3 °F -13.0 °F 77% 30.23 in 10.0 mi WNW 20.7 mph - N/A   Clear
6:55 PM -7.6 °F -30.5 °F -13.0 °F 77% 30.24 in 10.0 mi WNW 17.3 mph 23.0 mph N/A   Clear
7:15 PM -9.4 °F -29.8 °F -14.8 °F 77% 30.25 in 10.0 mi WNW 12.7 mph - N/A   Clear
7:35 PM -9.4 °F -31.4 °F -14.8 °F 77% 30.24 in 10.0 mi WNW 15.0 mph - N/A   Clear
7:55 PM -9.4 °F -30.6 °F -16.6 °F 71% 30.25 in 10.0 mi WNW 13.8 mph - N/A   Clear
8:15 PM -11.2 °F -29.0 °F -16.6 °F 77% 30.25 in 8.0 mi West 9.2 mph - N/A Snow Light Snow
8:35 PM - - - N/A% 30.24 in 9.0 mi West 10.4 mph - N/A   Scattered Clouds
8:55 PM -11.2 °F -30.1 °F -16.6 °F 77% 30.24 in 10.0 mi West 10.4 mph - N/A   Partly Cloudy
9:15 PM -11.2 °F -29.0 °F -16.6 °F 77% 30.25 in 10.0 mi West 9.2 mph - N/A   Mostly Cloudy
9:35 PM -11.2 °F -32.1 °F -16.6 °F 77% 30.24 in 9.0 mi West 12.7 mph - N/A Snow Light Snow
9:55 PM -11.2 °F -35.2 °F -16.6 °F 77% 30.24 in 10.0 mi WNW 17.3 mph - N/A   Partly Cloudy
10:15 PM -11.2 °F -37.0 °F -16.6 °F 77% 30.23 in 10.0 mi WNW 20.7 mph 25.3 mph N/A   Clear
10:35 PM -11.2 °F -37.0 °F -16.6 °F 77% 30.23 in 10.0 mi WNW 20.7 mph 25.3 mph N/A   Clear
10:55 PM -11.2 °F -37.6 °F -16.6 °F 77% 30.23 in 10.0 mi WNW 21.9 mph - N/A   Clear
11:15 PM -11.2 °F -38.2 °F -16.6 °F 77% 30.22 in 10.0 mi WNW 23.0 mph 28.8 mph N/A   Clear
11:35 PM -11.2 °F -36.4 °F -16.6 °F 77% 30.23 in 10.0 mi West 19.6 mph 24.2 mph N/A   Clear
11:55 PM -9.4 °F -32.1 °F -16.6 °F 71% 30.24 in 10.0 mi WNW 16.1 mph 21.9 mph N/A   Partly Cloudy